TimeCDT,TemperatureF,Dew PointF,Humidity,Sea Level PressureIn,VisibilityMPH,Wind Direction,Wind SpeedMPH,Gust SpeedMPH,PrecipitationIn,Events,Conditions,WindDirDegrees,DateUTC
12:53 AM,34.0,30.0,85,30.06,10.0,NW,5.8,-,N/A,,Clear,320,2013-10-16 05:53:00
1:53 AM,33.1,28.9,85,30.05,10.0,WNW,5.8,-,N/A,,Clear,290,2013-10-16 06:53:00
2:53 AM,32.0,28.0,85,30.04,10.0,WSW,3.5,-,N/A,,Clear,250,2013-10-16 07:53:00
3:53 AM,32.0,28.9,88,30.02,10.0,Calm,Calm,-,N/A,,Clear,0,2013-10-16 08:53:00
4:53 AM,30.0,27.0,88,30.01,10.0,West,4.6,-,N/A,,Clear,260,2013-10-16 09:53:00
5:53 AM,30.9,28.9,92,29.99,9.0,South,3.5,-,N/A,,Clear,180,2013-10-16 10:53:00
6:53 AM,30.0,27.0,88,29.99,9.0,South,6.9,-,N/A,,Clear,190,2013-10-16 11:53:00
7:53 AM,32.0,28.9,88,29.98,8.0,South,5.8,-,N/A,,Clear,180,2013-10-16 12:53:00
8:53 AM,34.0,30.9,89,29.98,7.0,South,6.9,-,N/A,,Clear,180,2013-10-16 13:53:00
9:53 AM,39.0,33.1,79,29.97,9.0,SSW,8.1,-,N/A,,Clear,200,2013-10-16 14:53:00
10:53 AM,44.1,34.0,68,29.95,10.0,SSW,8.1,-,N/A,,Clear,200,2013-10-16 15:53:00
11:53 AM,46.9,36.0,66,29.94,10.0,SSW,9.2,-,N/A,,Clear,200,2013-10-16 16:53:00
12:53 PM,51.1,37.9,61,29.92,10.0,South,9.2,-,N/A,,Clear,190,2013-10-16 17:53:00
1:53 PM,55.0,39.0,55,29.90,10.0,SSW,10.4,-,N/A,,Clear,210,2013-10-16 18:53:00
2:53 PM,57.9,37.9,47,29.87,10.0,SW,10.4,-,N/A,,Clear,230,2013-10-16 19:53:00
3:53 PM,60.1,37.9,44,29.85,10.0,WSW,9.2,18.4,N/A,,Clear,240,2013-10-16 20:53:00
4:53 PM,59.0,36.0,42,29.84,10.0,SW,12.7,-,N/A,,Clear,230,2013-10-16 21:53:00
5:53 PM,55.9,37.0,49,29.84,10.0,SW,8.1,-,N/A,,Clear,230,2013-10-16 22:53:00
6:53 PM,48.0,37.0,66,29.85,10.0,SSW,8.1,-,N/A,,Clear,210,2013-10-16 23:53:00
7:53 PM,46.9,36.0,66,29.85,10.0,SSW,8.1,-,N/A,,Clear,210,2013-10-17 00:53:00
8:53 PM,46.9,37.9,71,29.84,10.0,SSW,6.9,-,N/A,,Mostly Cloudy,210,2013-10-17 01:53:00
9:53 PM,46.0,37.9,73,29.84,10.0,SSW,6.9,-,N/A,,Mostly Cloudy,210,2013-10-17 02:53:00
10:53 PM,48.0,37.9,68,29.83,10.0,SW,4.6,-,N/A,,Mostly Cloudy,220,2013-10-17 03:53:00
11:53 PM,46.9,39.0,74,29.83,10.0,Calm,Calm,-,N/A,,Overcast,0,2013-10-17 04:53:00